Location: ???????
(52.3000°N, 54.4667°E)
Time: 12:23:14
(UTC+00:00)

Cosmos-2242 - Pass Details

Date: 24 January 2020
Orbit: 590 x 618 km, 82.5° (Epoch: 20 February)

Event Time Altitude Azimuth Distance (km) Brightness Sun altitude
Rises 14:10:44 0° 350° (N) 2,879 6.4 -11.6°
Reaches altitude 10° 14:12:59 10° 353° (N) 1,966 5.5 -12.0°
Maximum altitude 14:17:19 72° 77° (ENE) 638 2.9 -12.6°
Drops below altitude 10° 14:21:35 10° 163° (SSE) 1,932 5.6 -13.2°
Sets 14:23:47 0° 165° (SSE) 2,826 6.4 -13.6°
